SM4TYA-13 Weather Reports


time (UTC)temp
C
wind
direction
speed
KPH
gust
KPH
rain 1hr
cm
rain 24hr
cm
rain mn
cm
humidity
%
barometer
mb
20260502231836 6 191 4.8 16.1 0.00 0.05 0.00 76 1009.7
20260502230935 6 185 3.2 12.9 0.00 0.05 0.00 77 1009.7
20260502230035 6 200 3.2 12.9 0.00 0.05 0.00 76 1009.6
20260502225136 7 173 6.4 16.1 0.00 0.05 0.00 76 1009.5
20260502224236 7 183 9.7 19.3 0.00 0.05 0.00 75 1009.4
20260502223336 7 178 8.0 17.7 0.00 0.05 0.00 76 1009.2
20260502222649 7 167 4.8 11.3 0.00 0.05 0.00 76 1009.1
20260502221747 8 194 11.3 25.7 0.00 0.05 0.00 76 1008.9
20260502220636 8 192 11.3 22.5 0.00 0.05 0.00 75 1008.9
20260502215946 8 185 9.7 20.9 0.00 0.05 0.05 75 1008.6
20260502214836 9 173 8.0 27.4 0.00 0.05 0.05 76 1008.4
20260502213936 9 168 8.0 22.5 0.00 0.05 0.05 76 1008.1
20260502213036 9 142 4.8 11.3 0.00 0.05 0.05 77 1008.0
20260502212135 8 89 1.6 3.2 0.00 0.05 0.05 81 1007.8
20260502211236 8 25 0.0 1.6 0.00 0.05 0.05 81 1007.6
20260502210336 8 25 0.0 1.6 0.00 0.05 0.05 81 1007.7
20260502205436 9 25 0.0 3.2 0.00 0.05 0.05 80 1007.6
20260502204536 9 26 0.0 1.6 0.00 0.05 0.05 79 1007.5
20260502203847 9 25 0.0 1.6 0.00 0.05 0.05 78 1007.4
20260502202736 10 25 0.0 3.2 0.00 0.05 0.05 76 1007.3
20260502201836 10 25 0.0 3.2 0.00 0.05 0.05 75 1007.1
20260502200935 10 20 1.6 4.8 0.00 0.05 0.05 75 1007.2
20260502200036 10 212 0.0 4.8 0.00 0.05 0.05 75 1007.3
20260502195136 10 48 1.6 3.2 0.00 0.05 0.05 75 1007.2
20260502194236 10 53 1.6 4.8 0.00 0.05 0.05 75 1007.2
20260502193336 10 336 1.6 3.2 0.03 0.05 0.05 75 1007.3
20260502192436 10 1 3.2 8.0 0.03 0.05 0.05 74 1007.3
20260502191536 10 62 1.6 8.0 0.03 0.05 0.05 74 1007.4
20260502190636 10 31 1.6 6.4 0.03 0.05 0.05 75 1007.4
20260502185736 10 52 3.2 9.7 0.05 0.05 0.05 75 1007.4
20260502184835 10 26 3.2 8.0 0.05 0.05 0.05 76 1007.3
20260502183936 10 9 3.2 8.0 0.05 0.05 0.05 76 1007.3
20260502183035 10 13 1.6 6.4 0.03 0.03 0.03 77 1007.4
20260502182135 10 48 0.0 3.2 0.03 0.03 0.03 77 1007.5
20260502181445 11 34 0.0 3.2 0.03 0.03 0.03 75 1007.5
20260502180547 11 66 1.6 4.8 0.03 0.03 0.03 68 1007.5
20260502164236 13 41 1.6 4.8 0.00 0.00 0.00 52 1007.3
20260502163336 14 32 3.2 8.0 0.00 0.00 0.00 52 1007.3
20260502162436 14 67 3.2 11.3 0.00 0.00 0.00 51 1007.2
20260502161536 14 81 3.2 11.3 0.00 0.00 0.00 51 1007.2
20260502160848 14 109 4.8 11.3 0.00 0.00 0.00 50 1007.3
20260502152136 15 129 3.2 11.3 0.00 0.00 0.00 48 1007.4
20260502151236 15 116 3.2 9.7 0.00 0.00 0.00 47 1007.5
20260502150549 15 124 3.2 9.7 0.00 0.00 0.00 46 1007.5
20260502123249 18 110 8.0 17.7 0.00 0.00 0.00 33 1007.5
20260502122135 20 121 8.0 20.9 0.00 0.00 0.00 32 1007.5
20260502121448 19 108 6.4 16.1 0.00 0.00 0.00 33 1007.6
20260502120546 19 96 4.8 12.9 0.00 0.00 0.00 32 1007.5
20260502115648 19 92 8.0 19.3 0.00 0.00 0.00 31 1007.7
20260502114536 20 68 6.4 17.7 0.00 0.00 0.00 30 1007.6
20260502113636 19 59 8.0 22.5 0.00 0.00 0.00 32 1007.7
20260502112945 20 51 8.0 22.5 0.00 0.00 0.00 32 1007.8
20260502112048 19 35 8.0 30.6 0.00 0.00 0.00 33 1007.9
20260502110935 19 59 6.4 22.5 0.00 0.00 0.00 33 1008.0
20260502110036 18 17 8.0 19.3 0.00 0.00 0.00 34 1008.4
20260502105135 18 38 6.4 14.5 0.00 0.00 0.00 35 1008.4
20260502104236 18 54 8.0 20.9 0.00 0.00 0.00 35 1008.5
20260502103336 18 44 9.7 20.9 0.00 0.00 0.00 35 1008.4
20260502102436 18 61 11.3 24.1 0.00 0.00 0.00 33 1008.6
20260502101536 20 12 11.3 29.0 0.00 0.00 0.00 33 1008.5
20260502100636 19 37 8.0 19.3 0.00 0.00 0.00 33 1008.6
20260502091236 17 39 8.0 24.1 0.00 0.00 0.00 36 1009.1
20260502090336 17 95 8.0 19.3 0.00 0.00 0.00 35 1009.1
20260502070636 15 75 4.8 12.9 0.00 0.00 0.00 45 1010.1
20260502065735 15 47 4.8 19.3 0.00 0.00 0.00 47 1010.2
20260502065048 15 55 4.8 16.1 0.00 0.00 0.00 48 1010.2
20260502063936 13 51 6.4 17.7 0.00 0.00 0.00 50 1010.2
20260502063036 13 74 8.0 17.7 0.00 0.00 0.00 51 1010.3
20260502062136 13 70 6.4 17.7 0.00 0.00 0.00 52 1010.5
20260502061235 13 63 4.8 14.5 0.00 0.00 0.00 53 1010.6
20260502060335 12 66 4.8 14.5 0.00 0.00 0.00 54 1010.7
20260502055436 12 60 6.4 14.5 0.00 0.00 0.00 55 1010.7
20260502054536 12 71 4.8 16.1 0.00 0.00 0.00 56 1010.8
20260502053636 12 27 6.4 16.1 0.00 0.00 0.00 58 1010.8
20260502052736 12 24 6.4 14.5 0.00 0.00 0.00 59 1010.8
20260502051836 11 52 4.8 9.7 0.00 0.00 0.00 60 1010.7
20260502050935 12 54 0.0 3.2 0.00 0.00 0.00 61 1010.8
20260502050036 11 44 0.0 3.2 0.00 0.00 0.00 61 1010.8
20260502045348 11 79 0.0 8.0 0.00 0.00 0.00 62 1010.8
20260502044236 10 13 0.0 3.2 0.00 0.00 0.00 63 1011.0
20260502043336 10 16 1.6 4.8 0.00 0.00 0.00 65 1010.9
20260502042645 10 9 1.6 6.4 0.00 0.00 0.00 67 1010.9
20260502041536 8 360 3.2 6.4 0.00 0.00 0.00 69 1011.0
20260502040636 7 7 1.6 6.4 0.00 0.00 0.00 71 1011.0
20260502035736 7 30 1.6 3.2 0.00 0.00 0.00 72 1011.2
20260502034836 7 30 1.6 3.2 0.00 0.00 0.00 73 1011.2
20260502033936 7 31 1.6 4.8 0.00 0.00 0.00 74 1011.2
20260502033035 6 34 1.6 3.2 0.00 0.00 0.00 75 1011.4
20260502032136 6 15 0.0 1.6 0.00 0.00 0.00 75 1011.4
20260502031449 6 15 0.0 1.6 0.00 0.00 0.00 74 1011.4
20260502030336 6 16 1.6 4.8 0.00 0.00 0.00 73 1011.6
20260502025435 6 28 3.2 6.4 0.00 0.00 0.00 73 1011.5
20260502024536 6 33 1.6 4.8 0.00 0.00 0.00 73 1011.7
20260502023636 7 45 1.6 4.8 0.00 0.00 0.00 73 1011.8
20260502022736 7 47 1.6 4.8 0.00 0.00 0.00 71 1011.7
20260502022048 7 48 1.6 4.8 0.00 0.00 0.00 70 1011.7
20260502021146 7 2 1.6 8.0 0.00 0.00 0.00 68 1011.8
20260502020036 8 8 3.2 8.0 0.00 0.00 0.00 68 1011.9
20260502015135 8 38 1.6 4.8 0.00 0.00 0.00 68 1012.1
20260502014236 8 22 1.6 3.2 0.00 0.00 0.00 67 1012.2
20260502013335 9 18 1.6 3.2 0.00 0.00 0.00 65 1012.4
20260502012436 10 12 1.6 6.4 0.00 0.00 0.00 64 1012.5
20260502011535 10 1 4.8 12.9 0.00 0.00 0.00 63 1012.6
20260502010636 10 20 3.2 11.3 0.00 0.00 0.00 63 1012.6
20260502005736 10 22 1.6 6.4 0.00 0.00 0.00 63 1012.6
20260502004836 10 360 4.8 9.7 0.00 0.00 0.00 62 1012.6
20260502003936 11 3 3.2 8.0 0.00 0.00 0.00 61 1012.8
20260502003036 11 8 3.2 9.7 0.00 0.00 0.00 60 1012.8
20260502002349 11 23 3.2 9.7 0.00 0.00 0.00 59 1012.9
20260502001236 11 12 4.8 11.3 0.00 0.00 0.00 58 1012.9
20260502000336 11 11 4.8 12.9 0.00 0.00 0.00 58 1013.0
20260501235646 12 16 6.4 12.9 0.00 0.00 0.00 57 1013.1
20260501234536 12 25 3.2 8.0 0.00 0.00 0.00 56 1013.0
20260501233845 12 12 3.2 9.7 0.00 0.00 0.00 56 1013.1
20260501232735 12 19 3.2 11.3 0.00 0.00 0.00 55 1013.2